METEOR 2-7 DEB, 43301

Orbit data source: Space-Track

METEOR 2-7 DEB, 43301 is space debris in LEO originally from a launch on Thu, 14 May 1981 UTC launched from the Plesetsk Missile And Space Complex (PKMTR). Debris objects in space refer to the collection of defunct objects orbiting the Earth. Examples of debris include non-operational satellites, rocket bodies, and fragments generated from explosions, collisions, or faulty payload assembly.

Loading next visibility...
Identifier
43301, 1981-043Y
Orbit
LEO
Country
Flag of CISCIS
Related business
Manufacturer
Unknown
Mission
Spacecraft
Bus & Motor
Unknown
Mass
Unknown
Launch date (UTC)
1981-05-14 (44 years ago)
Launch vehicle
Unknown
Launch site
Plesetsk Missile And Space Complex (PKMTR)
Object type
Payload
Rocket body
Debris
Shape & HBR
Unknown shape, 0.1 m
Radar Cross Section
Small (<0.1 m²)

Expand to show TLE details & history
Last TLE update: 20 hours ago

TLE from 20 hours ago
0 METEOR 2-7 DEB
1 43301U 81043Y   25295.33399387  .00004939  00000-0  19492-2 0  9997
2 43301  81.2572 303.6045 0044932   7.2967 352.8857 14.28411253480856
Epoch: 2025-10-22T08:00Z
TLE epoch observation values (Epoch: 2025-10-22T08:00:57.070Z)
Latitude
-0.00007°
Longitude
152.3576°
Altitude
767.976 km
Speed
7.487 km/s
True Right ascension
20h 14m 25s
True Declination
0° 00' 00"
Sunlit
Object was in daylight at epoch
Visualization orbit readout
Latitude
Unknown
Longitude
Unknown
Altitude
Unknown
Speed
Unknown
Apparent Right ascension
Unknown
Apparent Declination
Unknown
Sunlit
N/A
Visualization observer readout
Local Sidereal Time
23:08:09
Azimuth
Unknown
Elevation
Unknown
Doppler factor
Unknown
Orbital elements
Apogee altitude
826.422 km
Perigee altitude
761.968 km
Semi-major axis
7,172.332 km
Eccentricity
0.00449
Inclination
81.2572°
RAAN
303.6045°
Arg. of periapsis
7.2967°
True anomaly
352.82157°
Mean anomaly
352.8857°
Eccentric anomaly
352.85367°
Mean motion
3.57316 °/min
Orbital period
100.75 mins
BSTAR
0.0019492
Loading maneuver chart data...
Computing Atmospheric mass density...
Loading historical data...
Loading historical data...
Loading historical data...
Loading historical data...
Loading historical data...
Loading historical data...
Loading historical data...

Documentation

Showing up to 5 results
|